Location: Unspecified
(0.0000°N, 0.0000°E)
Time: 21:44:33
(UTC+01:00)

JASON 3 - Pass Details

Date: 03 October 2020
Orbit: 1332 x 1343 km, 66.0° (Epoch: 27 October)

Event Time Altitude Azimuth Distance (km) Brightness Sun altitude
Rises 21:56:48 0° 346° (NNW) 4,344 ? -31.9°
Reaches altitude 10° 21:59:40 10° 350° (N) 3,372 ? -32.6°
Enters shadow 22:03:59 35° 2° (N) 2,035 ? -33.7°
